Location: Albany
(35.0170°S, 117.8920°E)
Time: 16:55:48
(UTC+08:00)

Explorer 11/Cluster Stage 4 - Pass Details

Date: 24 January 2021
Orbit: 467 x 1257 km, 28.8° (Epoch: 02 March)

Event Time Altitude Azimuth Distance (km) Brightness Sun altitude
Rises 12:21:54 0° 277° (W) 2,871 9.5 74.1°
Reaches altitude 10° 12:24:41 10° 290° (WNW) 1,850 8.7 74.1°
Maximum altitude 12:28:08 25° 345° (NNW) 1,065 8.0 74.1°
Drops below altitude 10° 12:31:15 10° 42° (NE) 1,657 8.6 74.0°
Sets 12:33:36 0° 56° (NE) 2,501 9.3 73.9°
